Main page
METAR-TAF:

METAR-TAF

Airports :

Beech River Regional Airport

Parsons, Tennessee, United States

latitude: 35-39-23N, longitude: 088-11-43W, elevation: 489 ft

Current weather observation

The report was made 44 minutes ago, at 00:50 UTC
Calm wind
Temperature 82°F
Humidity 79%
Pressure 29.93 in. Hg
Visibility: 10 miles
Clear sky

METAR: KPVE 250050Z AUTO 00000KT 10SM CLR 28/24 A2993 RMK A01

Time: 20:34 (01:34 UTC)


TAF: missing

Weather observations and forecasts of more than 4000 airports (METAR and TAF reports).

The available stations are represented by yellow and red dots on the map.

Hover mouse over dot to see the name of the station.

Then click to see weather observations and forecasts.

To change the map : click on the green buttons with a black cross to zoom in, on the green button with a dash to zoom out, or on the green arrows for adjacent maps.


METAR-TAF: